Погода в Лончаково

Россия / Хабаровский край     47°05′45″N   134°13′15″E
темп.,
°C
ветер,
м/с
пор.,
м/с
влажн.,
%
обл.,
%
осадки,
мм/ч
давл.,
гПа
погр.,
м
22 апреля, чт
чт2201:00+8юв21370 0.0 102210
04:00+7ююв22430 0.0 102228
07:00+7юв23460 0.0 102360
10:00+16ююв35260 0.0 1022434
13:00+22ю45200 0.0 1021986
16:00+24ю45183 0.0 10191506
19:00+21ю24275 0.0 101971
22:00+15ююв2340100 0.0 102033
23 апреля, пт
пт2301:00+13ююв31048100 0.0 1021218
04:00+12ю41338100 0.0 1022401
07:00+10ююв41141100 0.0 1022391
10:00+13ю4838100 0.0 1022513
13:00+16ююз4638100 0.0 1022841
16:00+20з5836100 0.0 10201484
19:00+15з41148100 0.0 1021750
22:00+13з31060100 0.4 1021769
24 апреля, сб
сб2401:00+11зсз4954100 0.0 1021726
04:00+9зсз5935100 0.0 1021760
07:00+7зсз244598 0.0 1021703
10:00+10сз4630100 0.0 10211530
13:00+10сз4624100 0.0 10201828
16:00+13сз57160 0.0 10182253
19:00+12сз48200 0.0 10172071
22:00+8сз5122749 0.0 1018757
25 апреля, вс
вс2501:00+6сз412315 0.0 1018488
04:00+5зсз41137100 0.0 1016425
07:00+5сз713390 0.0 10162142
10:00+6ссз710285 0.0 10172178
13:00+9ссз5922100 0.0 10173318
16:00+10ссз591994 0.0 10173094
19:00+9сз37170 0.0 10182198
22:00+4ююз11270 0.0 101910
26 апреля, пн
пн2601:00+2ююз22320 0.0 102013
04:00+1ююв11375 0.0 102010
07:00+2ююв223660 0.0 102048
10:00+10ююз342165 0.0 1019869
13:00+15ююз3419100 0.0 10162015
16:00+17ююз4519100 0.0 10132145
19:00+15ю3826100 0.0 1011487
22:00+10ююв31040100 0.0 1011274